Time,TemperatureF,DewpointF,PressureIn,WindDirection,WindDirectionDegrees,WindSpeedMPH,WindSpeedGustMPH,Humidity,HourlyPrecipIn,Conditions,Clouds,dailyrainin,SoftwareType,DateUTC
2013-09-06 00:11:00,57.0,52.0,30.43,South,184,6.0,12.0,82,0.00,,,0.61,,2013-09-06 06:11:00,
2013-09-06 00:21:00,57.0,51.0,30.43,South,187,6.0,10.0,81,0.00,,,0.61,,2013-09-06 06:21:00,
2013-09-06 00:42:00,58.0,52.0,30.43,SSW,192,7.0,12.0,80,0.00,,,0.61,,2013-09-06 06:42:00,
2013-09-06 00:52:00,58.0,51.0,30.43,SSW,192,8.0,13.0,77,0.00,,,0.61,,2013-09-06 06:52:00,
2013-09-06 01:11:00,58.0,51.0,30.43,South,189,5.0,10.0,77,0.00,,,0.61,,2013-09-06 07:11:00,
2013-09-06 01:23:00,58.0,50.0,30.43,South,176,6.0,10.0,75,0.00,,,0.61,,2013-09-06 07:23:00,
2013-09-06 01:42:00,58.0,49.0,30.43,South,185,6.0,12.0,73,0.00,,,0.61,,2013-09-06 07:42:00,
2013-09-06 01:52:00,58.0,50.0,30.43,SSW,192,6.0,9.0,75,0.00,,,0.61,,2013-09-06 07:52:00,
2013-09-06 02:12:00,58.0,49.0,30.43,South,169,7.0,10.0,73,0.00,,,0.61,,2013-09-06 08:12:00,
2013-09-06 02:22:00,58.0,49.0,30.43,South,169,5.0,10.0,71,0.00,,,0.61,,2013-09-06 08:22:00,
2013-09-06 02:42:00,59.0,48.0,30.43,SE,142,3.0,10.0,68,0.00,,,0.61,,2013-09-06 08:42:00,
2013-09-06 02:52:00,59.0,48.0,30.43,South,183,3.0,6.0,67,0.00,,,0.61,,2013-09-06 08:52:00,
2013-09-06 03:11:00,59.0,48.0,30.43,SSE,156,5.0,10.0,66,0.00,,,0.61,,2013-09-06 09:11:00,
2013-09-06 03:22:00,59.0,47.0,30.43,South,177,4.0,10.0,64,0.00,,,0.61,,2013-09-06 09:22:00,
2013-09-06 03:53:00,59.0,47.0,30.42,SSW,192,4.0,9.0,64,0.00,,,0.61,,2013-09-06 09:53:00,
2013-09-06 04:12:00,58.0,47.0,30.42,SSW,200,5.0,13.0,66,0.00,,,0.61,,2013-09-06 10:12:00,
2013-09-06 04:23:00,58.0,47.0,30.42,SSW,203,6.0,11.0,66,0.00,,,0.61,,2013-09-06 10:23:00,
2013-09-06 04:42:00,58.0,45.0,30.42,SSW,197,5.0,11.0,61,0.00,,,0.61,,2013-09-06 10:42:00,
2013-09-06 04:53:00,58.0,44.0,30.42,South,183,4.0,11.0,59,0.00,,,0.61,,2013-09-06 10:53:00,
2013-09-06 05:11:00,59.0,43.0,30.42,South,184,6.0,14.0,55,0.00,,,0.61,,2013-09-06 11:11:00,
2013-09-06 05:22:00,59.0,42.0,30.42,South,176,7.0,12.0,53,0.00,,,0.61,,2013-09-06 11:22:00,
2013-09-06 05:42:00,59.0,41.0,30.42,South,189,4.0,10.0,51,0.00,,,0.61,,2013-09-06 11:42:00,
2013-09-06 06:12:00,60.0,41.0,30.42,SSE,161,4.0,9.0,49,0.00,,,0.61,,2013-09-06 12:12:00,
2013-09-06 06:21:00,60.0,41.0,30.42,South,173,4.0,7.0,49,0.00,,,0.61,,2013-09-06 12:21:00,
2013-09-06 06:42:00,59.0,39.0,30.43,South,174,1.0,8.0,48,0.00,,,0.61,,2013-09-06 12:42:00,
2013-09-06 06:52:00,59.0,39.0,30.43,South,186,5.0,13.0,48,0.00,,,0.61,,2013-09-06 12:52:00,
2013-09-06 07:11:00,59.0,40.0,30.43,South,182,7.0,11.0,49,0.00,,,0.61,,2013-09-06 13:11:00,
2013-09-06 07:22:00,58.0,39.0,30.43,South,173,6.0,10.0,49,0.00,,,0.61,,2013-09-06 13:22:00,
2013-09-06 07:42:00,59.0,39.0,30.44,South,190,6.0,10.0,47,0.00,,,0.61,,2013-09-06 13:42:00,
2013-09-06 11:53:00,79.0,41.0,30.43,ENE,75,2.0,7.0,26,0.00,,,0.61,,2013-09-06 17:53:00,
2013-09-06 12:12:00,78.0,39.0,30.43,North,355,1.0,7.0,25,0.00,,,0.61,,2013-09-06 18:12:00,
2013-09-06 12:22:00,78.0,37.0,30.43,North,355,2.0,6.0,23,0.00,,,0.61,,2013-09-06 18:22:00,
2013-09-06 12:42:00,78.0,38.0,30.42,North,355,3.0,6.0,24,0.00,,,0.61,,2013-09-06 18:42:00,
2013-09-06 12:52:00,79.0,40.0,30.42,NNE,30,1.0,8.0,25,0.00,,,0.61,,2013-09-06 18:52:00,
2013-09-06 13:11:00,80.0,38.0,30.41,NNW,328,0.0,7.0,22,0.00,,,0.61,,2013-09-06 19:11:00,
2013-09-06 13:21:00,79.0,37.0,30.41,NW,315,1.0,11.0,22,0.00,,,0.61,,2013-09-06 19:21:00,
2013-09-06 13:42:00,81.0,40.0,30.40,NW,314,2.0,8.0,23,0.00,,,0.61,,2013-09-06 19:42:00,
2013-09-06 13:52:00,81.0,40.0,30.40,NE,34,2.0,7.0,23,0.00,,,0.61,,2013-09-06 19:52:00,
2013-09-06 14:11:00,81.0,41.0,30.40,West,263,2.0,8.0,24,0.00,,,0.61,,2013-09-06 20:11:00,
2013-09-06 14:23:00,81.0,40.0,30.39,NNW,328,2.0,7.0,23,0.00,,,0.61,,2013-09-06 20:23:00,
2013-09-06 14:42:00,81.0,40.0,30.39,NNW,339,7.0,13.0,23,0.00,,,0.61,,2013-09-06 20:42:00,
2013-09-06 14:52:00,81.0,42.0,30.38,NE,50,7.0,13.0,25,0.00,,,0.61,,2013-09-06 20:52:00,
2013-09-06 15:12:00,81.0,40.0,30.37,WNW,296,2.0,7.0,23,0.00,,,0.61,,2013-09-06 21:12:00,
2013-09-06 15:22:00,81.0,42.0,30.37,NNW,346,0.0,6.0,25,0.00,,,0.61,,2013-09-06 21:22:00,
2013-09-06 15:54:00,83.0,39.0,30.36,North,355,0.0,1.0,21,0.00,,,0.61,,2013-09-06 21:54:00,
2013-09-06 16:13:00,82.0,39.0,30.35,WSW,257,0.0,4.0,22,0.00,,,0.61,,2013-09-06 22:13:00,
2013-09-06 16:23:00,81.0,41.0,30.35,WSW,250,3.0,8.0,24,0.00,,,0.61,,2013-09-06 22:23:00,
2013-09-06 16:53:00,81.0,42.0,30.34,NW,320,3.0,6.0,25,0.00,,,0.61,,2013-09-06 22:53:00,
2013-09-06 17:12:00,83.0,40.0,30.34,NW,312,0.0,5.0,22,0.00,,,0.61,,2013-09-06 23:12:00,
2013-09-06 17:23:00,83.0,41.0,30.33,West,275,0.0,6.0,23,0.00,,,0.61,,2013-09-06 23:23:00,
2013-09-06 17:52:00,82.0,39.0,30.33,North,5,0.0,5.0,22,0.00,,,0.61,,2013-09-06 23:52:00,
2013-09-06 18:12:00,80.0,41.0,30.33,North,355,1.0,5.0,25,0.00,,,0.61,,2013-09-07 00:12:00,
2013-09-06 18:22:00,81.0,42.0,30.33,NNW,336,1.0,4.0,25,0.00,,,0.61,,2013-09-07 00:22:00,
2013-09-06 18:42:00,79.0,42.0,30.34,WNW,298,1.0,4.0,27,0.00,,,0.61,,2013-09-07 00:42:00,
2013-09-06 18:52:00,76.0,44.0,30.35,ESE,120,9.0,30.0,32,0.00,,,0.61,,2013-09-07 00:52:00,
2013-09-06 19:12:00,66.0,48.0,30.36,ESE,109,11.0,38.0,53,0.00,,,0.61,,2013-09-07 01:12:00,
2013-09-06 20:12:00,62.0,48.0,30.38,ESE,117,5.0,20.0,61,0.09,,,0.70,,2013-09-07 02:12:00,
2013-09-06 20:23:00,60.0,49.0,30.39,ESE,116,6.0,16.0,66,0.03,,,0.70,,2013-09-07 02:23:00,
2013-09-06 20:42:00,60.0,48.0,30.39,SSE,147,8.0,13.0,65,0.00,,,0.38,,2013-09-07 02:42:00,
2013-09-06 20:52:00,61.0,48.0,30.39,SSE,152,1.0,6.0,62,0.00,,,0.38,,2013-09-07 02:52:00,
2013-09-06 21:11:00,61.0,47.0,30.38,South,170,2.0,8.0,60,0.00,,,0.38,,2013-09-07 03:11:00,
2013-09-06 21:23:00,62.0,47.0,30.38,South,172,3.0,8.0,58,0.00,,,0.38,,2013-09-07 03:23:00,
2013-09-06 21:44:00,62.0,47.0,30.38,SSE,147,5.0,11.0,58,0.00,,,0.31,,2013-09-07 03:44:00,
2013-09-06 21:55:00,63.0,48.0,30.37,SSE,165,2.0,7.0,58,0.00,,,0.31,,2013-09-07 03:55:00,
2013-09-06 22:14:00,63.0,48.0,30.37,SE,129,2.0,6.0,59,0.00,,,0.31,,2013-09-07 04:14:00,
2013-09-06 22:23:00,62.0,48.0,30.37,SSE,165,2.0,8.0,60,0.00,,,0.31,,2013-09-07 04:23:00,
2013-09-06 22:43:00,62.0,48.0,30.37,SE,144,4.0,7.0,60,0.00,,,0.09,,2013-09-07 04:43:00,
2013-09-06 22:54:00,62.0,47.0,30.37,South,184,4.0,9.0,58,0.00,,,0.09,,2013-09-07 04:54:00,
2013-09-06 23:13:00,62.0,47.0,30.37,South,171,5.0,9.0,57,0.00,,,0.09,,2013-09-07 05:13:00,
2013-09-06 23:23:00,62.0,46.0,30.37,SSW,201,5.0,9.0,56,0.00,,,0.09,,2013-09-07 05:23:00,
2013-09-06 23:42:00,62.0,47.0,30.36,South,182,3.0,9.0,58,0.00,,,0.09,,2013-09-07 05:42:00,
2013-09-06 23:52:00,63.0,46.0,30.37,SSW,192,4.0,10.0,54,0.00,,,0.09,,2013-09-07 05:52:00,